International Virtual Aviation Organisation

Russian Federation and Kazakhstan MCD

 

Карточка аэропорта UNNT

Внимание!
Информация на этой странице в стадии наполнения.
Если вы не увидели какой-то информации, или заметили неточность - пожалуйста сообщите нам!
Спасибо!
Команда RU-STAFF
Название аэропортаТолмачево
Название аэропорта (англ.)Tolmachevo
Превышение367 ft. (111.9 m.)
Координаты55°0.77999999999989', 82°38.178'
Высота перехода1300m
Эшелон переходаFL060
Коды ответчика5201-5277
Зона ОрВДНовосибирск РПИ (UNNT)
Данные METARUNNT 080230Z 23007MPS 9999 OVC009 M00/M02 Q1016 R25/820140 R16/591030 NOSIG RMK QFE752/1003
Проноз погоды (TAF)UNNT 080200Z 0803/0903 22008G15MPS 9999 -SHSNRA DRSN BKN010CB TEMPO 0803/0809 1500 SHSN BLSN BKN005 BKN020CB FM080900 26005G12MPS 9999 SCT020 TEMPO 0809/0821 -SNRA BECMG 0818/0821 21003G08MPS
NOTAMshow/hide NOTAM
AWOS   TABLE

Информация о ВПП

ВПП Длина ВПП (м.) Покрытие Курс ВПП Частота ILS
073597Асфальтобетон72110.1
253597Асфальтобетон252108.5
163602Цементобетон161109.7
343602Цементобетон341111.1

Диспетчерские позиции

Позывной Наименование органа УВД Частота
UNNT_GNDНовосибирск Руление121.7
UNNT_TWRНовосибирск Вышка118.5
UNNT_R_APPНовосибирск Круг122.0
UNNT_APPНовосибирск Подход127.5



Спутниковое изображение